Content
SEND FEEDBACK

Daily
Averages
Monthly
Summary
United States of America

WESTON, MISSOURI


Home > North America > United States > Missouri
Elevation: 784 feet     Latitude: 39 22N     Longitude: 094 55W

WEATHER
 
SELECT A DAY
Number of Records: 191,698;   Date Range: 1/1/95 - 7/26/14
 
SHARE

PRINT THIS DATA

[ ← Previous Day ]
WEATHER ALMANAC - JANUARY 9, 2013
[ Next Day → ]
[ °C ]   °F
Weather ElementAverageHighLow
Temperature41.9 °F57.9 °F (2:53 pm)28.9 °F (5:53 am)
Dewpoint27.9 °F32 °F (11:53 am)24.1 °F (5:53 am)
Humidity60.7 %85 % (8:53 am)30 % (3:53 pm)
Barometer30.36 in30.43 in (9:53 am)30.23 in (1:53 am)
Wind Speed6.9 mph12.7 mph (12:53 pm)
Weather ElementAverage
Visibility9.9 mi
Wind DirectionSSE (151.7 °)

Weather ElementTotal
Precipitation---
Heating Degree Days21.6 (Base 65)
Averaged from 23 records on January 9, 2013
WEATHER CONDITIONS BREAKOUT
WIND DIRECTION BREAKOUT
WEATHER BY HOUR - JANUARY 9, 2013
[ °C ]   °F
Local TimeTemperatureDewpointHumidityBarometerVisibilityWind DirectionWind SpeedGust SpeedPrecipitationEventsConditions
1:53 AM33.1 °F26.1 °F75 %30.23 in10.0 miSW (230°)6.9 mphClear
2:53 AM32.0 °F26.1 °F79 %30.26 in10.0 miWSW (240°)5.8 mphClear
3:53 AM30.0 °F25.0 °F82 %30.28 in10.0 miSW (220°)6.9 mphClear
4:53 AM32.0 °F26.1 °F79 %30.30 in10.0 miWest (260°)6.9 mphClear
5:53 AM28.9 °F24.1 °F82 %30.31 in10.0 miWSW (240°)3.5 mphClear
6:53 AM32.0 °F26.1 °F79 %30.33 in8.0 miWNW (290°)5.8 mphClear
7:53 AM28.9 °F24.1 °F82 %30.38 in9.0 miWest (270°)3.5 mphClear
8:53 AM32.0 °F28.0 °F85 %30.41 in10.0 miWSW (250°)3.5 mphOvercast
9:53 AM39.0 °F30.0 °F70 %30.43 in10.0 miNNW (340°)4.6 mphOvercast
10:53 AM45.0 °F30.9 °F58 %30.43 in10.0 miNNE (20°)8.1 mphOvercast
11:53 AM48.9 °F32.0 °F52 %30.41 in10.0 miNorth (10°)8.1 mphMostly Cloudy
12:53 PM52.0 °F32.0 °F47 %30.38 in10.0 miNNE (30°)12.7 mphMostly Cloudy
1:53 PM55.9 °F28.9 °F36 %30.35 in10.0 miNNE (30°)9.2 mphMostly Cloudy
2:53 PM57.9 °F27.0 °F31 %30.37 in10.0 miNNE (30°)5.8 mphMostly Cloudy
3:53 PM57.0 °F26.1 °F30 %30.39 in10.0 miENE (60°)3.5 mphMostly Cloudy
4:53 PM50.0 °F30.0 °F46 %30.39 in10.0 miSSE (160°)5.8 mphMostly Cloudy
5:53 PM50.0 °F28.9 °F44 %30.40 in10.0 miESE (120°)9.2 mphOvercast
6:53 PM46.0 °F28.9 °F51 %30.40 in10.0 miESE (120°)6.9 mphOvercast
7:53 PM44.1 °F28.9 °F55 %30.40 in10.0 miESE (120°)5.8 mphOvercast
8:53 PM43.0 °F30.0 °F60 %30.41 in10.0 miESE (120°)6.9 mphMostly Cloudy
9:53 PM42.1 °F28.9 °F60 %30.40 in10.0 miESE (110°)8.1 mphScattered Clouds
10:53 PM41.0 °F28.0 °F60 %30.38 in10.0 miESE (110°)8.1 mphScattered Clouds
11:53 PM42.1 °F26.1 °F53 %30.35 in10.0 miESE (110°)12.7 mphScattered Clouds
Hourly data recorded from KMCI, located miles away from Weston, Missouri







STORIES FROM OUR PARTNERS